{"data":{"norad_id":68657,"epoch":"2026-09-20T03:48:43.102080Z","epoch_age_seconds":92647,"freshness":"FRESH","line1":"1 68657U 26076B   26263.15883220  .00000042  00000+0  62892-4 0  9997","line2":"2 68657  86.5052  11.8444 0001334 114.1190 246.0084 13.24410036 21944","mean_motion":13.24410036,"eccentricity":0.0001334,"inclination_deg":86.5052,"raan_deg":11.8444,"arg_perigee_deg":114.119,"mean_anomaly_deg":246.0084,"bstar":6.2892e-5,"rev_number":2194,"period_min":108.72765690821,"perigee_km":1166.9154046054,"apogee_km":1168.9286931597,"semimajor_km":7546.0590488825,"source":"CELESTRAK","updated_at":"2026-09-20T09:00:24.373330Z"}}